Dewpoint
57 57 57 57 58 58 58 59 59 58 58 57 57 57 57 57 58 57 38 38 44 67 67 59 53 47 49 46 61 61 52 50 51 52 53 56 55 56 58 56 57 58 59 61 66
57 56 57 57 58 58 58 59 59 58 58 57 56 57 57 58 54 46 50 63 65 69 54 47 45 42 37 39 59 56 52 51 55 55 54 58 55 54 55 55 55 60 63 66 66
57 57 58 58 58 58 58 58 58 58 58 57 56 56 57 58 39 20 61 65 67 69 35 35 40 38 37 49 56 57 51 55 57 58 58 56 56 55 54 53 55 57 62 65 65
57 57 57 57 58 58 58 58 58 57 57 56 56 56 57 54 23 42 69 66 68 51 29 25 24 26 27 29 43 52 55 54 57 57 57 56 57 54 54 54 55 60 62 63 64
57 57 57 57 57 57 58 57 57 57 56 56 56 56 54 36 29 41 71 67 63 47 25 23 25 29 30 31 54 53 57 54 57 57 59 58 56 57 54 56 59 60 61 62 63
57 57 57 57 57 57 57 57 56 56 56 56 56 57 45 18 19 52 60 58 50 28 23 25 25 31 32 29 40 50 57 58 59 57 58 55 56 55 58 57 58 59 60 61 62
56 57 57 57 57 57 56 56 56 56 56 57 57 55 47 21 38 55 55 47 35 24 22 24 30 31 32 25 54 55 53 54 57 59 57 57 53 53 58 56 57 58 59 59 60
56 56 56 56 56 56 56 55 55 56 57 58 59 52 31 30 39 39 30 27 25 23 24 28 32 30 28 28 51 51 50 46 53 58 59 57 50 57 57 56 55 57 57 58 59
56 55 55 55 55 55 55 54 56 57 59 59 51 45 30 48 41 35 28 21 21 22 25 23 25 23 26 30 33 44 45 48 50 56 57 57 53 56 57 55 54 55 56 57 58
56 55 55 55 55 54 53 53 60 58 57 56 53 39 33 32 39 33 32 19 17 17 19 19 18 16 19 21 18 28 47 48 48 51 56 56 55 57 55 55 54 55 55 57 57
56 55 55 55 54 53 51 50 42 41 50 37 37 29 32 35 33 30 29 22 19 16 14 19 14 13 14 18 24 34 43 40 45 50 52 53 54 55 55 54 53 54 55 55 57
55 55 54 54 53 52 50 39 40 41 37 42 43 39 37 37 34 31 28 26 25 22 15 14 12 14 15 17 18 20 21 21 30 49 51 50 50 53 55 54 53 52 53 52 53
54 54 54 53 52 49 44 41 43 43 37 33 39 40 39 36 34 34 31 28 26 25 17 14 15 16 15 15 15 14 15 20 24 49 52 48 45 51 55 56 55 55 54 55 51
54 54 53 51 46 45 41 45 45 42 27 27 31 36 40 38 33 37 31 27 24 25 18 16 17 18 16 14 14 12 15 16 24 40 38 46 39 42 50 54 54 54 55 55 52
53 53 52 50 45 42 40 45 44 34 22 30 29 34 40 32 31 34 29 24 22 21 20 21 16 18 18 17 14 14 14 13 25 40 41 45 41 42 53 52 53 54 55 55 53
52 52 51 48 46 46 47 44 36 28 24 27 27 27 33 28 25 28 27 26 23 18 19 21 19 15 16 17 14 14 14 15 23 42 39 40 42 40 37 43 49 54 54 55 53
51 50 48 47 34 45 45 36 26 27 31 25 24 23 25 23 24 27 26 25 23 19 21 23 23 22 22 22 21 14 13 13 12 20 33 28 36 38 32 41 49 53 55 54 53
50 49 50 48 48 46 39 32 28 25 31 29 29 23 17 18 21 22 26 25 26 25 23 23 22 23 24 23 20 14 14 14 10 9 10 27 29 33 38 41 45 54 54 55 53
49 46 47 48 49 46 35 28 18 27 30 29 28 21 23 22 21 19 25 26 27 24 24 22 21 23 23 22 21 18 12 12 10 11 11 15 21 23 31 36 43 50 54 54 54
45 45 45 49 48 40 28 28 31 34 33 33 26 26 23 24 22 21 18 20 20 26 27 25 22 23 23 23 21 19 18 14 13 15 10 13 20 22 25 23 33 47 54 55 56
39 40 44 48 44 36 23 29 34 35 35 34 32 30 25 25 23 23 22 25 28 26 26 23 26 21 22 20 19 17 17 16 15 15 14 12 15 25 30 28 32 37 48 55 56
36 39 43 43 38 39 36 37 38 36 35 34 34 32 25 25 23 23 24 31 38 27 24 27 22 22 22 23 22 19 17 16 15 14 16 14 15 22 29 34 46 44 46 54 57
36 40 44 42 37 35 35 34 34 33 32 31 28 31 31 29 28 27 31 38 36 38 36 24 21 20 20 25 22 19 18 16 16 16 19 16 16 24 40 44 47 50 52 55 57
43 38 40 40 39 37 34 33 30 32 31 30 29 31 29 31 31 30 35 35 36 37 50 40 23 21 20 21 23 21 20 17 16 16 16 16 17 18 21 29 44 54 56 57 59
44 40 40 38 37 38 36 32 32 31 32 31 31 32 33 33 34 34 34 32 34 39 38 36 30 35 31 32 29 26 25 19 17 20 21 24 18 19 23 36 48 54 56 57 59
42 41 41 39 38 34 35 33 33 33 33 30 31 31 32 30 31 30 30 31 33 31 30 35 34 37 34 34 37 30 27 26 25 25 20 23 26 27 41 52 53 54 56 56 58
42 42 41 37 36 33 33 35 35 36 34 34 35 32 31 32 34 30 30 30 34 29 29 32 31 32 32 37 36 31 30 27 26 26 26 27 28 36 45 50 51 53 56 56 59
Lifted_Index
13 13 13 13 13 13 13 13 13 13 14 14 14 14 14 14 13 11 10 10 10 7 6 6 6 5 3 2 1 0 0 0 0 -1 -1 -1 -1 -0 0 0 0 0 -1 -1 -1
12 13 13 13 13 13 13 13 13 14 14 14 15 15 14 14 12 11 10 10 8 7 7 8 7 5 3 2 1 0 0 0 -0 -1 -1 -1 -1 -0 0 1 1 0 -1 -1 -1
13 13 13 13 13 13 13 13 13 14 14 15 15 15 14 13 11 10 9 9 7 7 9 9 7 5 4 3 2 1 1 0 -0 -1 -1 -2 -1 -1 0 1 1 0 -0 -1 -1
14 14 14 13 13 13 13 13 13 14 14 15 15 15 14 12 9 8 7 6 6 8 10 9 8 5 4 4 3 1 0 0 -0 -1 -2 -2 -1 -1 -0 0 1 0 -0 -0 -1
14 14 14 14 14 13 13 13 13 13 14 15 15 14 13 11 9 7 5 5 7 9 9 9 8 6 5 5 3 1 -0 -0 -1 -1 -2 -2 -1 -1 -0 0 0 0 0 -0 -0
15 14 14 14 14 13 14 13 13 13 14 14 14 13 12 10 9 8 6 6 8 9 8 8 8 7 6 5 3 0 -1 -1 -1 -1 -1 -1 -1 -1 -1 -0 0 0 0 0 0
15 15 15 14 14 14 14 14 13 13 13 13 13 12 11 10 9 8 7 8 10 10 9 9 9 8 7 5 2 -1 -1 -1 -1 -1 -1 -1 -1 -1 -1 -1 -0 0 1 1 1
16 15 15 15 14 14 14 14 13 13 13 13 12 11 10 10 9 8 9 10 11 11 10 10 9 8 7 6 2 -0 -1 -0 -1 -1 -1 -2 -2 -2 -1 -1 -1 0 1 1 1
16 16 16 15 15 14 14 14 13 12 12 12 12 11 10 10 9 8 10 11 11 11 11 10 9 8 7 6 3 1 1 0 -0 -1 -1 -2 -2 -2 -2 -2 -1 0 1 1 1
17 17 16 15 15 14 14 13 12 11 11 11 11 11 10 10 9 9 10 11 11 10 9 8 7 6 6 5 5 4 2 1 0 -0 -1 -1 -2 -2 -1 -1 -1 -0 0 1 1
16 16 16 16 15 14 13 12 10 10 10 10 10 10 10 9 9 9 9 10 10 9 8 7 6 5 5 6 5 5 3 2 1 0 -1 -1 -1 -1 -1 -1 -1 -1 -0 0 1
15 15 16 15 14 13 12 11 10 9 9 9 9 9 9 9 9 9 8 9 8 8 7 7 6 6 6 6 6 5 4 3 3 1 -0 -1 -0 -1 -1 -1 -1 -1 -1 -0 0
14 14 15 15 13 12 10 9 10 9 8 8 9 9 9 9 9 9 8 8 7 7 7 6 6 6 7 7 6 5 4 4 4 2 1 -0 0 -0 -1 -1 -1 -1 -1 -1 -0
13 13 14 14 12 10 9 9 9 8 7 7 8 9 9 9 9 9 8 8 8 7 7 7 7 7 6 6 6 5 4 4 5 4 2 1 1 0 -1 -1 -2 -2 -2 -1 -0
12 12 13 13 12 10 9 9 9 7 5 6 8 9 9 9 8 8 8 8 8 8 7 7 7 7 6 6 6 5 4 5 5 4 3 2 1 0 -0 -1 -1 -2 -2 -1 -1
11 12 12 12 12 10 10 9 8 5 4 6 8 8 8 8 8 8 8 8 7 7 7 6 7 7 6 6 6 5 4 4 4 3 2 2 2 1 1 1 -1 -2 -2 -2 -1
11 11 12 12 11 10 10 8 6 5 5 7 7 7 7 7 7 7 7 7 7 6 6 6 6 6 6 5 5 4 3 3 2 2 2 3 3 2 2 2 0 -1 -2 -2 -2
11 11 10 11 11 10 9 7 5 5 6 7 7 6 6 7 7 7 6 6 6 6 5 5 5 5 5 4 4 3 3 2 2 2 2 3 4 4 3 2 1 -1 -1 -1 -1
10 10 9 10 10 9 8 6 5 6 7 6 6 6 6 6 6 6 6 6 5 5 5 4 4 4 5 4 3 3 2 2 2 2 2 3 4 4 3 2 1 -0 -1 -1 -2
9 9 8 9 9 9 7 6 7 7 7 6 6 5 5 5 6 5 5 5 5 5 5 4 4 4 4 4 3 3 2 2 2 1 1 2 3 3 3 2 1 1 -0 -1 -2
9 8 8 9 8 7 7 7 7 7 7 6 5 5 5 5 5 5 5 5 5 4 4 4 3 3 3 3 3 2 2 1 1 1 1 1 2 3 3 2 2 1 1 -0 -1
9 8 8 8 7 7 7 7 7 7 6 6 5 5 5 5 5 5 4 4 4 3 3 3 3 2 2 2 2 2 2 2 1 1 1 1 2 2 2 2 2 2 1 0 -1
9 9 8 7 7 7 7 7 7 6 6 6 5 5 5 5 4 4 4 4 3 3 2 3 2 2 1 1 2 2 2 2 1 1 1 1 1 2 2 2 2 1 1 -0 -1
9 8 8 7 7 7 7 7 6 6 6 5 5 5 5 4 4 4 3 3 2 2 2 2 2 2 2 2 2 1 1 1 1 1 1 1 1 2 2 2 1 0 -0 -1 -1
9 8 8 7 7 7 6 6 6 6 5 5 5 5 4 4 4 4 3 3 2 2 2 1 2 2 2 2 2 1 1 1 1 1 1 1 1 1 1 1 1 -1 -1 -2 -2
10 10 9 8 7 7 7 6 6 5 5 5 5 5 4 4 4 4 4 3 2 2 2 2 1 1 1 1 1 1 1 1 1 1 1 1 1 1 1 0 -0 -1 -2 -2 -2
11 11 10 9 8 8 7 7 6 5 5 5 5 5 5 5 5 4 4 3 3 2 2 2 2 2 1 1 0 1 1 2 2 1 1 1 1 1 1 -0 -1 -2 -2 -3 -2